Weather History for Orr, MN

Change the Weather History Date:

Friday, November 16, 2012

  Actual Average Record
Temperature  
Mean Temperature 24 °F -  
Max Temperature 37 °F 31 °F 51 °F (2001)
Min Temperature 10 °F 17 °F -7 °F (2002)
Degree Days  
Heating Degree Days 42    
Moisture  
Dew Point 14 °F    
Average Humidity 65    
Maximum Humidity 92    
Minimum Humidity 33    
Precipitation  
Precipitation 0.00 in - - ()
Sea Level Pressure  
Sea Level Pressure 30.34 in    
Wind  
Wind Speed 4 mph (SSE)    
Max Wind Speed 13 mph    
Max Gust Speed 17 mph    
Visibility 10 miles    
Events      
Averages and records for this station are not official NWS values.
T = Trace of Precipitation, MM = Missing Value Source: NWS Daily Summary

Daily Weather History Graph

Daily Weather History Graph

Search for Another Location

Airport:

Trip Planner

Search our weather history database for the weather conditions in past years. The results will help you decide how hot, cold, wet, or windy it might be!

Date:

Astronomy

Nov. 16, 2012 Rise Set
Actual Time 7:20 AM CST 4:31 PM CST
Civil Twilight 6:46 AM CST 5:06 PM CST
Nautical Twilight 6:08 AM CST 5:43 PM CST
Astronomical Twilight 5:31 AM CST 6:20 PM CST
Moon 10:19 AM CST (11/16) 7:29 PM CST (11/16)
Length of Visible Light 10h 20m
Length of Day
9h 11m
Waxing Crescent, 12% of the Moon is Illuminated
Nov 16
Waxing Crescent
Nov 20
First Quarter
Nov 28
Full
Dec 6
Last Quarter
Dec 13
New

Hourly Weather History & Observations

Time (CST) Temp. Windchill Dew Point Humidity Pressure Visibility Wind Dir Wind Speed Gust Speed Precip Events Conditions
12:13 AM 14.0 °F - 10.4 °F 86% 30.41 in 10.0 mi Calm Calm - N/A   Clear
12:33 AM 15.8 °F - 10.4 °F 79% 30.42 in 10.0 mi Calm Calm - N/A   Clear
12:53 AM 15.8 °F - 10.4 °F 79% 30.42 in 10.0 mi Calm Calm - N/A   Clear
1:13 AM 15.8 °F - 10.4 °F 79% 30.42 in 10.0 mi Calm Calm - N/A   Clear
1:33 AM 12.2 °F - 10.4 °F 92% 30.42 in 10.0 mi Calm Calm - N/A   Clear
1:53 AM 12.2 °F - 10.4 °F 92% 30.42 in 10.0 mi Calm Calm - N/A   Clear
2:13 AM 14.0 °F - 10.4 °F 86% 30.43 in 10.0 mi Calm Calm - N/A   Clear
2:33 AM 14.0 °F - 10.4 °F 86% 30.44 in 10.0 mi Calm Calm - N/A   Clear
2:54 AM 10.4 °F - 6.8 °F 85% 30.43 in 10.0 mi Calm Calm - N/A   Clear
3:13 AM 10.4 °F - 8.6 °F 92% 30.42 in 10.0 mi Calm Calm - N/A   Clear
3:33 AM 12.2 °F - 10.4 °F 92% 30.41 in 10.0 mi Calm Calm - N/A   Clear
3:53 AM 12.2 °F - 8.6 °F 85% 30.41 in 10.0 mi Calm Calm - N/A   Clear
4:13 AM 10.4 °F - 6.8 °F 85% 30.41 in 10.0 mi Calm Calm - N/A   Clear
4:33 AM 12.2 °F - 8.6 °F 85% 30.40 in 10.0 mi Calm Calm - N/A   Clear
4:53 AM 12.2 °F - 8.6 °F 85% 30.41 in 10.0 mi Calm Calm - N/A   Clear
5:13 AM 12.2 °F 6.1 °F 8.6 °F 85% 30.40 in 10.0 mi SE 3.5 mph - N/A   Clear
5:33 AM 14.0 °F - 8.6 °F 79% 30.40 in 10.0 mi Calm Calm - N/A   Clear
5:53 AM 12.2 °F 6.1 °F 8.6 °F 85% 30.40 in 10.0 mi SE 3.5 mph - N/A   Clear
6:13 AM 12.2 °F 4.3 °F 8.6 °F 85% 30.40 in 10.0 mi SSE 4.6 mph - N/A   Clear
6:33 AM 14.0 °F 8.2 °F 8.6 °F 79% 30.39 in 10.0 mi SSE 3.5 mph - N/A   Clear
6:53 AM 14.0 °F - 8.6 °F 79% 30.40 in 10.0 mi Calm Calm - N/A   Clear
7:13 AM 14.0 °F 8.2 °F 8.6 °F 79% 30.41 in 10.0 mi SE 3.5 mph - N/A   Clear
7:33 AM 15.8 °F - 10.4 °F 79% 30.41 in 10.0 mi Calm Calm - N/A   Clear
7:53 AM 15.8 °F 10.2 °F 10.4 °F 79% 30.41 in 10.0 mi SE 3.5 mph - N/A   Clear
8:13 AM 15.8 °F 8.6 °F 12.2 °F 86% 30.40 in 10.0 mi SE 4.6 mph - N/A   Clear
8:33 AM 19.4 °F 14.3 °F 14.0 °F 80% 30.40 in 10.0 mi SSE 3.5 mph - N/A   Clear
8:53 AM 21.2 °F 13.6 °F 14.0 °F 74% 30.40 in 10.0 mi SSE 5.8 mph - N/A   Clear
9:13 AM 23.0 °F 15.8 °F 15.8 °F 74% 30.40 in 10.0 mi SSE 5.8 mph - N/A   Clear
9:33 AM 24.8 °F 17.9 °F 15.8 °F 69% 30.41 in 10.0 mi SSE 5.8 mph - N/A   Clear
9:53 AM 26.6 °F 18.2 °F 15.8 °F 64% 30.41 in 10.0 mi SSE 8.1 mph - N/A   Clear
10:13 AM 26.6 °F 18.2 °F 17.6 °F 69% 30.41 in 10.0 mi SSE 8.1 mph - N/A   Clear
10:33 AM 30.2 °F 22.6 °F 17.6 °F 60% 30.41 in 10.0 mi SSE 8.1 mph - N/A   Clear
10:53 AM 32.0 °F 24.2 °F 15.8 °F 51% 30.41 in 10.0 mi South 9.2 mph - N/A   Clear
11:13 AM 32.0 °F 24.2 °F 15.8 °F 51% 30.41 in 10.0 mi South 9.2 mph - N/A   Clear
11:33 AM 33.8 °F 26.4 °F 12.2 °F 41% 30.40 in 10.0 mi SSE 9.2 mph 16.1 mph N/A   Clear
11:53 AM 35.6 °F 29.9 °F 12.2 °F 38% 30.39 in 10.0 mi SSE 6.9 mph - N/A   Clear
12:14 PM 35.6 °F 27.5 °F 8.6 °F 33% 30.37 in 10.0 mi South 11.5 mph - N/A   Clear
12:33 PM 35.6 °F 28.0 °F 8.6 °F 33% 30.36 in 10.0 mi SSE 10.4 mph 16.1 mph N/A   Clear
12:53 PM 37.4 °F 30.8 °F 10.4 °F 33% 30.36 in 10.0 mi SSE 9.2 mph - N/A   Clear
1:13 PM 37.4 °F 29.3 °F 10.4 °F 33% 30.33 in 10.0 mi SSE 12.7 mph 17.3 mph N/A   Clear
1:33 PM 37.4 °F 31.4 °F 10.4 °F 33% 30.33 in 10.0 mi SSE 8.1 mph - N/A   Clear
1:53 PM 37.4 °F 30.3 °F 12.2 °F 36% 30.32 in 10.0 mi SSE 10.4 mph 16.1 mph N/A   Clear
2:14 PM 37.4 °F 30.8 °F 12.2 °F 36% 30.32 in 10.0 mi South 9.2 mph - N/A   Clear
2:33 PM 37.4 °F 30.8 °F 15.8 °F 41% 30.31 in 10.0 mi SSE 9.2 mph - N/A   Clear
2:53 PM 37.4 °F 30.8 °F 14.0 °F 38% 30.30 in 10.0 mi SSE 9.2 mph - N/A   Clear
3:13 PM 37.4 °F 30.8 °F 15.8 °F 41% 30.29 in 10.0 mi SSE 9.2 mph - N/A   Clear
3:33 PM 35.6 °F 27.5 °F 15.8 °F 44% 30.30 in 10.0 mi SSE 11.5 mph - N/A   Clear
3:53 PM 35.6 °F 30.7 °F 15.8 °F 44% 30.30 in 10.0 mi SSE 5.8 mph - N/A   Clear
4:13 PM 35.6 °F 31.7 °F 17.6 °F 48% 30.30 in 10.0 mi SE 4.6 mph - N/A   Clear
4:33 PM 33.8 °F 28.6 °F 17.6 °F 52% 30.29 in 10.0 mi SE 5.8 mph - N/A   Clear
4:53 PM 32.0 °F 26.4 °F 17.6 °F 55% 30.29 in 10.0 mi SE 5.8 mph - N/A   Clear
5:13 PM 32.0 °F 25.6 °F 19.4 °F 60% 30.28 in 10.0 mi SE 6.9 mph - N/A   Clear
5:33 PM 32.0 °F 24.8 °F 19.4 °F 60% 30.27 in 10.0 mi SE 8.1 mph - N/A   Clear
5:53 PM 32.0 °F 24.8 °F 17.6 °F 55% 30.26 in 10.0 mi SE 8.1 mph - N/A   Clear
6:13 PM 32.0 °F 25.6 °F 17.6 °F 55% 30.25 in 10.0 mi SE 6.9 mph 17.3 mph N/A   Clear
6:34 PM 30.2 °F 23.4 °F 15.8 °F 55% 30.25 in 10.0 mi SE 6.9 mph - N/A   Clear
6:53 PM 30.2 °F 23.4 °F 15.8 °F 55% 30.25 in 10.0 mi SE 6.9 mph - N/A   Clear
7:13 PM 28.4 °F 21.2 °F 15.8 °F 59% 30.25 in 10.0 mi SSE 6.9 mph - N/A   Clear
7:53 PM 30.2 °F 22.6 °F 17.6 °F 60% 30.24 in 10.0 mi SE 8.1 mph - N/A   Scattered Clouds
8:13 PM 28.4 °F 20.4 °F 17.6 °F 64% 30.24 in 10.0 mi SE 8.1 mph - N/A   Scattered Clouds
8:33 PM 28.4 °F 20.4 °F 17.6 °F 64% 30.23 in 10.0 mi SE 8.1 mph - N/A   Clear
8:53 PM 28.4 °F 20.4 °F 17.6 °F 64% 30.23 in 10.0 mi SE 8.1 mph - N/A   Clear
9:13 PM 28.4 °F 20.4 °F 17.6 °F 64% 30.24 in 10.0 mi SSE 8.1 mph - N/A   Clear
9:54 PM 28.4 °F 20.4 °F 17.6 °F 64% 30.23 in 10.0 mi SE 8.1 mph - N/A   Mostly Cloudy
10:13 PM 28.4 °F 22.2 °F 19.4 °F 69% 30.24 in 10.0 mi SE 5.8 mph - N/A   Overcast
10:33 PM 28.4 °F 22.2 °F 19.4 °F 69% 30.23 in 10.0 mi SE 5.8 mph - N/A   Overcast
10:53 PM 28.4 °F 21.2 °F 19.4 °F 69% 30.22 in 10.0 mi SE 6.9 mph - N/A   Overcast
11:13 PM 30.2 °F 23.4 °F 19.4 °F 64% 30.22 in 10.0 mi SE 6.9 mph - N/A   Overcast
11:34 PM 30.2 °F 21.9 °F 19.4 °F 64% 30.22 in 10.0 mi SSE 9.2 mph - N/A   Overcast
11:53 PM 32.0 °F 25.6 °F 19.4 °F 60% 30.22 in 10.0 mi SSE 6.9 mph - N/A   Overcast